Tanagra, Greece

6:29 PM EEST on April 25, 2017 (GMT +0300)
Tanagra Air Base

Weather History for LGTG - May, 2013

Change the Weather History Date:

Wednesday, May 22, 2013

  Actual Average (LGEL) Record (LGEL)
Temperature  
Mean Temperature 74 °F -  
Max Temperature 89 °F 83 °F 89 °F (2006)
Min Temperature 60 °F 64 °F 57 °F (1999)
Cooling Degree Days 10    
Growing Degree Days 24 (Base 50)    
Moisture  
Dew Point 52 °F    
Average Humidity 49    
Maximum Humidity 82    
Minimum Humidity 21    
Precipitation  
Precipitation 0.00 in - - ()
Sea Level Pressure  
Sea Level Pressure 29.81 in    
Wind  
Wind Speed 2 mph ()    
Max Wind Speed 12 mph    
Max Gust Speed -    
Visibility 6.2 miles    
Events      
Averages and records for this station are not official NWS values.
T = Trace of Precipitation, MM = Missing Value Source: Averaged Metar Reports

Daily Weather History Graph

Daily Weather History Graph

Search for Another Location

Airport or City:

Trip Planner

Search our weather history database for the weather conditions in past years. The results will help you decide how hot, cold, wet, or windy it might be!

Date:

Astronomy

May. 22, 2013 Rise Set
Actual Time 6:09 AM EEST 8:36 PM EEST
Civil Twilight 5:39 AM EEST 9:06 PM EEST
Nautical Twilight 5:01 AM EEST 9:44 PM EEST
Astronomical Twilight 4:20 AM EEST 10:25 PM EEST
Moon 5:38 PM EEST (5/22) 3:59 AM EEST (5/22)
Length of Visible Light 15h 27m
Length of Day
14h 26m
Waxing Gibbous, 89% of the Moon is Illuminated
May 22
Waxing Gibbous
May 25
Full
May 31
Last Quarter
Jun 8
New
Jun 16
First Quarter

Hourly Weather History & Observations

Time (EEST) Temp. Heat Index Dew Point Humidity Pressure Visibility Wind Dir Wind Speed Gust Speed Precip Events Conditions
12:50 AM 64.4 °F - 57.2 °F 77% 29.89 in - Calm Calm - N/A   Clear
1:50 AM 64.4 °F - 55.4 °F 73% 29.89 in - Calm Calm - N/A   Clear
2:50 AM 60.8 °F - 55.4 °F 82% 29.86 in - Calm Calm - N/A   Clear
3:50 AM 60.8 °F - 53.6 °F 77% 29.86 in - Calm Calm - N/A   Clear
4:50 AM 62.6 °F - 53.6 °F 72% 29.83 in - Calm Calm - N/A   Clear
5:50 AM 60.8 °F - 53.6 °F 77% 29.83 in - Calm Calm - N/A   Clear
6:20 AM 62.6 °F - 53.6 °F 72% 29.83 in - Calm Calm - N/A   Clear
7:20 AM 62.6 °F - 55.4 °F 77% 29.83 in - Calm Calm - N/A   Clear
8:50 AM 75.2 °F - 55.4 °F 50% 29.86 in - Calm Calm - N/A   Clear
9:50 AM 77.0 °F - 53.6 °F 44% 29.86 in - Calm Calm - N/A   Clear
10:50 AM 82.4 °F - 51.8 °F 35% 29.83 in - Calm Calm - N/A   Clear
11:50 AM 86.0 °F - 51.8 °F 31% 29.83 in - East 5.8 mph - N/A   Clear
12:50 PM 86.0 °F - 51.8 °F 31% 29.83 in - ENE 9.2 mph - N/A   Clear
1:50 PM 87.8 °F - 50.0 °F 27% 29.80 in - ENE 11.5 mph - N/A   Clear
2:50 PM 87.8 °F - 51.8 °F 29% 29.80 in - East 11.5 mph - N/A   Clear
3:50 PM 89.6 °F - 44.6 °F 21% 29.80 in - ESE 6.9 mph - N/A   Clear
5:50 PM 80.6 °F 80.8 °F 57.2 °F 45% 29.77 in 6.2 mi East 9.2 mph - N/A   Overcast
6:50 PM 82.4 °F - 42.8 °F 25% 29.74 in 6.2 mi South 5.8 mph - N/A   Overcast
7:50 PM 77.0 °F - 55.4 °F 47% 29.77 in 6.2 mi ENE 4.6 mph - N/A   Overcast
8:50 PM 77.0 °F - 46.4 °F 34% 29.74 in 6.2 mi SSE 9.2 mph - N/A   Mostly Cloudy
9:50 PM 77.0 °F - 48.2 °F 36% 29.71 in 6.2 mi North 8.1 mph - N/A   Mostly Cloudy
10:50 PM 75.2 °F - 48.2 °F 38% 29.74 in 6.2 mi North 4.6 mph - N/A   Mostly Cloudy
11:50 PM 77.0 °F - 46.4 °F 34% 29.71 in 6.2 mi Calm Calm - N/A   Mostly Cloudy